Weather History for Lufkin, TX

Change the Weather History Date:

Tuesday, April 17, 2012

  Actual Average Record
Temperature  
Mean Temperature 70 °F 67 °F  
Max Temperature 80 °F 79 °F 92 °F (2006)
Min Temperature 59 °F 55 °F 36 °F (1999)
Degree Days  
Heating Degree Days 0 2  
Month to date heating degree days 1 53  
Since 1 July heating degree days 1409 1897  
Cooling Degree Days 5 4  
Month to date cooling degree days 128 54  
Year to date cooling degree days 321 114  
Growing Degree Days 20 (Base 50)    
Moisture  
Dew Point 58 °F    
Average Humidity 66    
Maximum Humidity 90    
Minimum Humidity 42    
Precipitation  
Precipitation 0.00 in 0.10 in 2.12 in (2009)
Month to date precipitation 0.74 1.66  
Year to date precipitation 18.13 13.49  
Snow  
Snow 0.00 in - - ()
Month to date snowfall 0.0  
Since 1 July snowfall 0.0  
Snow Depth 0.00 in    
Sea Level Pressure  
Sea Level Pressure 30.15 in    
Wind  
Wind Speed 6 mph (NE)    
Max Wind Speed 13 mph    
Max Gust Speed 18 mph    
Visibility 10 miles    
Events      
T = Trace of Precipitation, MM = Missing Value Source: NWS Daily Summary

Daily Weather History Graph

Daily Weather History Graph

Search for Another Location

Airport:

Trip Planner

Search our weather history database for the weather conditions in past years. The results will help you decide how hot, cold, wet, or windy it might be!

Date:

Astronomy

Apr. 17, 2012 Rise Set
Actual Time 6:48 AM CDT 7:49 PM CDT
Civil Twilight 6:23 AM CDT 8:14 PM CDT
Nautical Twilight 5:53 AM CDT 8:43 PM CDT
Astronomical Twilight 5:23 AM CDT 9:14 PM CDT
Moon 4:33 AM CDT (4/17) 4:53 PM CDT (4/17)
Length of Visible Light 13h 51m
Length of Day
13h 01m
Waning Crescent, 12% of the Moon is Illuminated
Apr 17
Waning Crescent
Apr 21
New
Apr 29
First Quarter
May 5
Full
May 12
Last Quarter

Hourly Weather History & Observations

Time (CDT) Temp. Dew Point Humidity Pressure Visibility Wind Dir Wind Speed Gust Speed Precip Events Conditions
12:53 AM 63.0 °F 59.0 °F 87% 30.13 in 10.0 mi North 5.8 mph - 0.01 in   Scattered Clouds
1:33 AM 62.6 °F 59.0 °F 88% 30.15 in 10.0 mi North 3.5 mph - N/A   Mostly Cloudy
1:46 AM 62.6 °F 59.0 °F 88% 30.15 in 10.0 mi Calm Calm - N/A   Overcast
1:53 AM 62.6 °F 59.0 °F 88% 30.14 in 10.0 mi Calm Calm - N/A   Overcast
2:03 AM 62.6 °F 59.0 °F 88% 30.14 in 10.0 mi NNE 4.6 mph - N/A   Overcast
2:53 AM 63.0 °F 59.0 °F 87% 30.12 in 10.0 mi NNE 5.8 mph - N/A   Overcast
3:53 AM 63.0 °F 59.0 °F 87% 30.12 in 10.0 mi North 4.6 mph - N/A   Mostly Cloudy
4:53 AM 63.0 °F 59.0 °F 87% 30.12 in 10.0 mi North 3.5 mph - N/A   Overcast
5:37 AM 62.6 °F 59.0 °F 88% 30.13 in 10.0 mi North 3.5 mph - N/A   Mostly Cloudy
5:53 AM 62.6 °F 59.0 °F 88% 30.13 in 10.0 mi North 3.5 mph - N/A   Mostly Cloudy
6:02 AM 62.6 °F 59.0 °F 88% 30.13 in 10.0 mi North 3.5 mph - N/A   Overcast
6:13 AM 62.6 °F 59.0 °F 88% 30.13 in 10.0 mi North 4.6 mph - N/A   Overcast
6:37 AM 62.6 °F 59.0 °F 88% 30.14 in 10.0 mi Variable 3.5 mph - N/A   Overcast
6:53 AM 62.1 °F 57.9 °F 86% 30.14 in 9.0 mi NNE 4.6 mph - N/A   Overcast
7:53 AM 62.1 °F 57.9 °F 86% 30.17 in 6.0 mi North 5.8 mph 16.1 mph N/A   Overcast
8:49 AM 64.4 °F 59.0 °F 83% 30.18 in 10.0 mi NE 8.1 mph - N/A   Overcast
8:53 AM 64.0 °F 59.0 °F 84% 30.18 in 10.0 mi NE 6.9 mph - N/A   Overcast
9:43 AM 66.2 °F 59.0 °F 78% 30.19 in 10.0 mi NE 8.1 mph - N/A   Scattered Clouds
9:53 AM 68.0 °F 60.1 °F 76% 30.18 in 10.0 mi NE 5.8 mph - N/A   Scattered Clouds
10:10 AM 69.8 °F 60.8 °F 73% 30.19 in 10.0 mi ENE 9.2 mph - N/A   Mostly Cloudy
10:30 AM 69.8 °F 60.8 °F 73% 30.20 in 10.0 mi East 9.2 mph - N/A   Overcast
10:53 AM 69.1 °F 60.1 °F 73% 30.19 in 10.0 mi NE 9.2 mph - N/A   Overcast
11:53 AM 71.1 °F 60.1 °F 68% 30.19 in 10.0 mi ENE 4.6 mph - N/A   Overcast
12:53 PM 75.0 °F 60.1 °F 60% 30.18 in 10.0 mi ENE 5.8 mph - N/A   Mostly Cloudy
1:18 PM 75.2 °F 57.2 °F 53% 30.18 in 10.0 mi North 8.1 mph - N/A   Mostly Cloudy
1:53 PM 79.0 °F 57.9 °F 48% 30.16 in 10.0 mi NNE 8.1 mph - N/A   Partly Cloudy
2:53 PM 79.0 °F 55.0 °F 44% 30.15 in 10.0 mi North 9.2 mph - N/A   Partly Cloudy
3:53 PM 79.0 °F 55.0 °F 44% 30.13 in 10.0 mi NE 8.1 mph - N/A   Partly Cloudy
4:53 PM 78.1 °F 53.1 °F 42% 30.12 in 10.0 mi NE 6.9 mph - N/A   Scattered Clouds
5:53 PM 78.1 °F 54.0 °F 43% 30.13 in 10.0 mi ENE 11.5 mph 17.3 mph N/A   Scattered Clouds
6:53 PM 73.9 °F 52.0 °F 46% 30.13 in 10.0 mi ENE 6.9 mph - N/A   Clear
7:53 PM 69.1 °F 57.0 °F 65% 30.14 in 10.0 mi East 5.8 mph - N/A   Clear
8:53 PM 66.0 °F 57.9 °F 75% 30.16 in 10.0 mi Calm Calm - N/A   Clear
9:53 PM 64.0 °F 57.9 °F 80% 30.17 in 10.0 mi ENE 3.5 mph - N/A   Clear
10:53 PM 61.0 °F 55.9 °F 83% 30.18 in 10.0 mi East 4.6 mph - N/A   Clear
11:53 PM 61.0 °F 55.9 °F 83% 30.18 in 10.0 mi ENE 6.9 mph - N/A   Clear